Location: Katowice
(50.2611°N, 19.0242°E)
Time: 03:13:08
(UTC+02:00)

Explorer 7 - Pass Details

Date: 29 August 2019
Orbit: 485 x 680 km, 50.3° (Epoch: 19 September)

Event Time Altitude Azimuth Distance (km) Brightness Sun altitude
Rises 12:03:16 0° 282° (WNW) 2,987 10.4 48.2°
Reaches altitude 10° 12:05:40 10° 280° (W) 2,050 9.7 48.3°
Maximum altitude 12:10:22 69° 198° (SSW) 667 8.7 48.5°
Drops below altitude 10° 12:14:47 10° 115° (ESE) 1,929 10.1 48.6°
Sets 12:17:00 0° 113° (ESE) 2,795 10.7 48.7°
